Zurück zum Katalog

STARLINK-36511

AktivKommunikationVLEO
NORAD 67451·PAYLOAD·🇺🇸 United States

Gestartet Jan 14, 2026 von Cape Canaveral Space Force Station

Loading…

Nächste Überflüge (nächste 24 Stunden)

TLE

AktuellSource: CelesTrak SupGP

Epoche: Sep 14, 2026, 15:05 UTC

1 67451C 26008G   26257.62895833 -.00020041  00000+0 -72559-3 0  2571
2 67451  43.0024 218.5344 0001540 275.7542 104.7468 15.27602181    11

Verfolge STARLINK-36511 in Echtzeit mit AllMySat

Download on the App Store